Simultaneous Nadir Overpasses (SNOs) Predictions

Prediction of SNOs between GOES-15 and NPP Satellite Orbit:

Table of predicted SNOs for the next 14.0 days since TLE Epoch: 4/20/2017
Index Date Time (GOES-15) GOES-15 Lat,Lon NPP Lat,Lon Distance(km) Time Diff (sec)
1 04/21/2017 10:30:28 0.07,-135.46 0.35,-136.66 136.61 80
2 04/22/2017 10:14:24 0.08,-135.46 -0.66,-132.13 379.79 80
3 04/23/2017 22:33:41 -0.07,-135.51 -0.48,-137.44 219.60 80
4 04/24/2017 22:17:37 -0.08,-135.50 0.53,-132.91 296.39 80
5 04/26/2017 10:36:44 0.07,-135.44 0.70,-138.17 310.99 80
6 04/27/2017 10:20:40 0.07,-135.44 -0.31,-133.64 204.48 80
7 04/28/2017 22:39:57 -0.07,-135.47 -0.82,-138.95 396.40 80
8 04/29/2017 22:23:51 -0.07,-135.46 0.13,-134.41 118.65 80
9 05/01/2017 10:43:00 0.07,-135.38 1.05,-139.68 490.19 80
10 05/02/2017 10:26:55 0.07,-135.37 0.03,-135.15 24.56 80




NCC Satellite Simultaneous Nadir Overpasses (SNOs) Prediction Service
